Hauptseite
METAR-TAF:

METAR-TAF

Flughäfen :

Meiringen, Schweiz

Militärflugplatz Meiringen

Breite: 46-44-25N, Länge: 8-06-36E, Höhe: 577 m

Beobachtung

Neuester Wetterbericht von vor 52 Minuten, um 02:50 UTC
Windstille
Temperatur 5°C
Luftfeuchtigkeit 87%
Luftdruck 1023 hPa
Sichtweite 10 km oder mehr

METAR: LSMM 210250Z AUTO 00000KT 9999NDV NCD 05/03 Q1023 RMK

Zeit: 05:42 (03:42 UTC)


TAF: fehlend

Wetterbeobachtungen und Prognosen von mehr als 4000 Flughäfen (METAR und TAF Bericht).

Die verfügbaren Stationen werden durch gelbe und rote Markierungen auf der Karte dargestellt.

Führen Sie die Maus auf sie, um den Namen der Station zu sehen.

Darauf klicken, um die Beobachtung von Wetterbeobachtungen und Prognosen zu sehen.

Um die Karte zu ändern : klicken Sie auf den grünen Tasten mit einem schwarzen Kreuz Zum Vergrößern, auf den grünen Button mit einem Gedankenstrich zu verkleinern, oder auf die grünen Pfeile für benachbarte Karten.


METAR-TAF: